Showing default

LEMUR-2 HCS-BAZUS, 67388

Orbit data source: Space-Track

LEMUR-2 HCS-BAZUS, 67388 is a payload satellite owned by Spire/Lux (US) in SSO that was launched on Sun, 11 Jan 2026 UTC via an FALCON 9 launch vehicle from the Air Force Western Test Range (AFWTR). Payload-class satellites include a variety of spacecraft equipped with specific instruments for various scientific and technological missions. These include communications satellites like Starlink; space stations such as the ISS; scientific satellites like the Hubble; Earth observation satellites from companies like Planet Labs, Umbra, and HawkEye 360; GPS; miniature CubeSats for education and research; and military/defense satellites.

Loading next visibility...
Identifier
67388, 2026-004AB
Orbit
SSO
Country
Flag of USUS
Related business
Manufacturer
Spire/Glasgow
Mission
Operational Commercial Com/MetRO
Bus & Motor
CUBESAT 3U, Unknown motor
Mass
4.6 kg wet, 4.6 kg dry
Launch date (UTC)
2026-01-11 (4 months ago)
Launch vehicle
FALCON 9
Launch site
Air Force Western Test Range (AFWTR)
Object type
Payload
Rocket body
Debris
Shape & HBR
Box + 2 Pan, 0.2 m
Radar Cross Section
0.054 m²

Expand to show TLE details & history
Last TLE update: 7 hours ago

TLE from 7 hours ago
0 LEMUR-2 HCS-BAZUS
1 67388U 26004AB  26146.52943412  .00004823  00000-0  50771-3 0  9993
2 67388  97.8022 145.8007 0003669 131.1990 228.9545 14.89836454 20082
Epoch: 2026-05-26T12:42Z
TLE epoch observation values (Epoch: 2026-05-26T12:42:23.107Z)
Latitude
0.00001°
Longitude
71.10286°
Altitude
603.166 km
Speed
7.557 km/s
True Right ascension
09h 43m 12s
True Declination
0° 00' 00"
Sunlit
Object was in daylight at epoch
Visualization orbit readout
Latitude
Unknown
Longitude
Unknown
Altitude
Unknown
Speed
Unknown
Apparent Right ascension
Unknown
Apparent Declination
Unknown
Sunlit
N/A
Visualization observer readout
Local Sidereal Time
05:28:48
Azimuth
Unknown
Elevation
Unknown
Doppler factor
Unknown
Orbital elements
Apogee altitude
598.028 km
Perigee altitude
592.911 km
Semi-major axis
6,973.607 km
Eccentricity
0.00037
Inclination
97.8022°
RAAN
145.8007°
Arg. of periapsis
131.199°
True anomaly
228.9228°
Mean anomaly
228.9545°
Eccentric anomaly
228.93865°
Mean motion
3.72698 °/min
Orbital period
96.59 mins
BSTAR
0.00050771
Loading maneuver chart data...
Computing Atmospheric mass density...
Loading historical data...
Loading historical data...
Loading historical data...
Loading historical data...
Loading historical data...
Loading historical data...
Loading historical data...

Documentation

Showing up to 5 results
|